Theta_e
293 292 294 295 296 297 299 303 301 300 298 304 305 299 302 303 305 305 305 305 305 306 306 305 304 307 307 309 312 312 311 310 317 316 315 315 315 317 316 319 320 319 322 317
292 292 294 295 297 300 302 303 303 297 304 298 297 303 304 304 305 305 304 306 305 305 304 304 303 307 307 309 312 313 312 314 316 315 315 315 316 315 316 318 317 321 321 317
292 292 295 295 296 297 301 302 299 302 302 301 303 302 304 304 303 304 304 305 304 304 301 304 306 308 309 310 311 311 313 314 316 317 317 316 317 317 316 317 318 319 317 313
292 292 295 295 297 298 301 302 299 301 297 301 301 302 303 303 303 303 304 303 304 303 301 304 304 307 308 309 310 310 311 314 312 313 314 314 313 314 314 315 316 317 313 310
294 292 294 296 297 298 301 297 303 299 300 301 300 303 303 301 301 302 303 304 303 303 303 305 306 307 308 308 309 310 310 313 310 312 312 314 314 312 312 313 315 315 312 308
295 292 293 296 296 298 302 301 300 301 302 300 300 300 301 301 302 302 302 303 303 303 303 304 305 306 308 308 311 309 309 310 311 311 311 313 314 311 310 309 309 310 310 309
294 293 292 295 296 298 300 300 301 302 299 300 300 301 301 301 302 303 303 303 302 303 304 306 308 308 308 308 310 309 309 310 310 309 309 316 309 307 306 306 306 306 306 304
294 292 292 295 296 298 299 299 300 301 298 301 301 300 301 301 302 302 304 302 303 303 305 307 307 307 307 308 309 309 310 310 311 310 313 313 308 304 304 308 305 303 303 302
293 291 292 295 296 298 298 298 299 300 300 300 301 301 301 300 299 300 302 302 304 303 305 306 308 307 308 309 309 309 310 309 312 310 312 312 304 301 302 305 303 301 301 299
293 292 292 295 296 297 298 298 298 299 300 302 301 300 300 301 301 300 302 301 303 302 301 306 305 308 308 310 309 308 307 307 308 310 310 306 299 300 302 307 302 300 299 298
293 292 291 294 296 296 297 298 297 298 299 299 301 301 301 301 301 297 301 299 301 300 302 303 304 306 307 309 308 308 306 308 305 306 307 304 298 300 302 301 298 298 298 298
293 292 292 294 295 296 296 298 298 297 297 299 301 298 298 301 301 301 301 302 303 302 299 300 302 306 304 306 307 306 305 306 303 302 301 298 298 297 297 296 296 296 296 296
293 292 292 293 295 296 296 298 297 297 297 298 301 303 302 302 302 302 301 302 302 302 302 302 303 305 304 304 305 306 305 305 302 302 300 298 297 296 295 296 296 295 294 294
293 292 292 292 294 295 295 296 297 297 297 298 301 301 302 302 300 301 301 301 301 300 300 302 302 302 304 304 305 302 303 302 302 300 298 297 296 295 295 294 293 293 292 291
293 292 292 292 292 294 294 296 297 296 298 299 299 300 302 302 301 301 301 301 300 300 300 299 300 303 302 303 304 301 299 299 301 299 299 297 295 294 294 292 291 291 290 289
293 292 291 291 291 293 294 295 296 296 297 297 297 301 303 302 302 301 301 301 301 300 301 300 302 303 302 300 299 298 296 296 298 297 296 296 294 293 293 291 290 289 288 288
293 292 292 291 292 293 295 297 298 297 297 297 298 301 302 301 301 301 301 300 300 300 301 301 301 303 303 295 296 297 296 295 295 294 294 294 294 293 292 292 290 288 287 286
292 291 291 291 293 293 294 298 298 298 298 297 299 297 301 300 300 300 300 300 300 300 301 302 301 302 303 299 299 297 295 294 294 294 294 293 292 291 290 290 289 287 286 284
292 291 291 291 293 293 294 295 296 297 298 298 298 299 294 301 301 301 300 300 300 300 299 301 300 297 297 299 298 296 296 295 294 293 292 291 289 289 288 288 287 286 284 283
291 291 293 294 294 296 298 297 297 297 299 298 299 299 297 301 301 300 299 300 297 297 299 302 296 295 300 300 298 296 296 295 294 293 292 290 289 287 286 285 284 284 283 282
291 292 294 296 296 297 297 296 298 297 298 297 298 300 298 301 295 298 300 295 296 297 298 296 295 298 296 295 294 293 293 292 292 292 291 291 289 287 284 283 283 282 282 282
292 294 296 297 297 297 298 298 298 297 297 299 299 300 302 302 302 301 301 297 295 298 301 294 293 296 294 292 291 291 290 289 289 289 288 287 286 285 284 283 282 282 281 281
293 295 296 296 296 299 297 299 299 294 301 300 300 300 302 302 302 300 299 298 293 301 294 297 295 295 293 291 290 289 288 288 287 286 285 285 285 284 283 283 282 281 281 281
293 294 296 295 296 293 295 296 297 302 302 301 302 301 301 301 298 297 299 298 299 300 296 297 294 292 291 289 288 288 286 286 285 284 284 284 283 283 282 282 281 281 280 280
293 295 297 293 299 299 299 302 302 302 301 302 300 299 299 298 299 298 298 300 298 296 298 297 293 291 290 288 287 287 286 285 284 284 283 283 282 282 282 281 281 280 279 279
293 293 295 297 299 298 299 301 302 303 301 300 300 297 298 298 298 298 299 298 296 297 294 292 291 289 289 288 287 286 285 284 284 283 283 283 282 282 281 280 279 279 278 278
293 293 294 294 295 298 298 299 301 302 300 297 298 295 298 296 297 300 296 293 297 293 291 290 290 289 288 287 286 284 284 284 283 283 282 282 281 280 280 279 279 278 278 278
Wind_Speed
13 13 12 11 10 7 6 1 2 2 4 2 3 2 2 10 11 10 5 3 3 4 11 5 5 7 9 21 9 5 3 2 1 3 8 3 4 2 6 2 3 2 2 4
13 14 12 11 11 9 5 2 5 4 5 2 3 6 6 6 4 6 6 4 4 4 4 5 3 9 15 21 10 2 3 1 2 2 2 5 4 5 7 3 3 3 1 4
13 14 12 11 11 8 5 2 2 3 4 3 0 4 4 8 9 4 13 8 6 4 3 3 4 10 8 19 14 13 7 4 6 3 3 4 1 12 10 5 1 4 6 10
12 14 13 11 10 10 4 2 3 4 2 1 2 3 4 6 6 2 10 5 10 7 4 6 4 5 10 11 20 8 5 6 8 13 10 14 10 15 9 9 7 7 8 17
12 13 14 12 11 11 3 4 1 2 3 7 4 2 3 5 6 3 6 6 11 11 4 5 12 13 3 4 7 6 5 4 8 13 16 20 15 22 19 19 15 10 13 10
12 11 14 13 12 12 0 2 1 1 2 3 2 5 2 6 9 5 14 7 8 9 9 25 28 26 19 11 2 5 4 2 1 4 11 10 13 19 21 22 20 12 10 6
12 10 16 14 14 11 7 4 1 2 3 1 0 5 6 7 10 6 9 15 5 14 31 31 11 9 15 5 4 5 0 5 2 2 6 5 7 15 21 24 19 18 15 10
12 10 17 15 14 14 6 4 4 4 2 6 8 7 5 13 15 10 10 13 18 24 16 3 4 2 6 7 6 5 5 2 2 3 3 5 11 14 9 5 12 18 15 13
9 11 17 16 15 13 7 4 5 3 2 4 10 6 9 3 5 7 9 23 16 23 3 3 4 3 4 4 8 12 8 9 3 1 4 4 6 19 18 5 7 16 17 16
10 11 16 16 15 15 11 6 5 3 2 2 10 4 3 6 9 4 8 19 13 20 4 3 3 3 7 4 7 8 5 5 7 5 4 3 14 21 20 3 3 10 15 15
13 9 15 15 14 15 14 4 6 4 2 5 2 1 4 7 9 2 11 8 8 6 6 4 4 3 3 1 6 4 5 5 4 4 4 4 29 8 6 4 12 13 14 13
14 10 14 15 13 13 12 6 6 6 4 6 8 10 9 9 5 7 7 8 8 6 3 3 3 3 4 4 3 8 4 3 3 5 4 5 12 16 15 14 12 11 13 11
14 12 12 13 14 12 12 7 5 1 2 4 2 4 2 3 2 3 1 3 8 5 7 3 2 2 3 3 2 3 3 6 4 3 5 10 10 11 12 12 10 10 10 13
15 14 11 11 14 12 11 8 3 4 1 2 3 1 2 2 3 4 3 5 4 8 13 4 2 2 5 2 3 4 6 5 3 5 10 12 8 8 9 11 11 13 14 12
17 13 11 8 14 14 10 7 3 3 1 2 6 5 3 1 3 2 1 1 3 8 4 1 2 3 4 4 3 3 7 3 1 2 8 8 6 6 6 10 11 10 13 15
16 13 11 7 8 16 9 4 10 9 6 2 3 3 4 2 2 1 1 2 4 5 4 4 4 2 3 2 2 6 8 5 2 6 6 11 9 7 6 8 10 10 10 12
16 13 9 4 11 18 12 4 5 9 9 1 3 2 2 2 2 2 1 2 2 3 3 3 4 4 1 2 2 11 8 7 11 13 13 9 5 6 6 7 8 10 10 9
15 13 7 11 13 16 20 9 5 13 8 3 1 3 3 5 3 2 2 1 1 3 3 3 3 3 3 1 12 10 9 10 10 7 7 13 8 9 7 7 8 8 8 8
15 12 10 14 11 9 14 13 10 7 4 2 4 1 3 5 3 2 1 1 1 3 2 2 1 2 1 4 19 17 15 11 14 8 10 12 11 9 7 8 6 6 5 3
15 12 7 5 8 8 14 11 11 9 5 4 4 6 2 7 4 2 0 2 2 1 4 1 2 1 4 5 13 16 12 9 11 13 13 14 11 7 5 6 5 4 3 4
15 9 6 6 16 15 4 6 5 5 4 7 7 12 4 8 3 2 5 2 2 1 3 3 2 3 5 16 17 15 13 10 13 14 12 9 7 7 10 8 5 5 7 7
14 8 10 13 8 5 3 4 5 4 5 9 6 8 8 7 5 3 2 2 3 3 2 3 2 2 15 15 14 12 12 13 13 9 12 15 14 11 8 7 7 7 7 7
12 5 4 5 6 5 4 6 3 3 6 11 9 2 7 4 2 2 1 1 3 2 1 3 1 14 17 17 16 15 12 10 11 13 13 13 13 10 7 8 8 6 6 6
5 4 4 4 4 4 4 4 5 7 12 20 18 7 4 3 2 2 3 3 1 2 2 3 4 19 19 19 18 17 16 13 13 13 12 11 10 9 8 6 5 4 3 3
3 3 4 5 4 0 3 2 13 12 23 24 12 7 4 1 2 2 3 2 3 5 3 2 18 25 24 22 18 16 16 14 12 12 11 11 10 8 5 3 2 2 3 4
2 3 3 3 2 1 3 3 12 19 25 20 6 3 3 4 3 4 6 3 5 2 3 18 25 26 24 20 17 15 15 13 14 13 12 10 8 5 4 3 3 4 3 7
3 4 5 3 1 4 4 4 1 19 25 3 4 5 6 3 2 4 4 4 1 14 19 19 21 23 22 18 17 18 17 15 15 13 11 8 7 5 4 4 7 8 5 8
Wind_Direction
181 176 180 182 180 171 171 225 105 98 131 57 231 196 291 290 11 14 355 325 307 271 318 318 331 313 306 314 330 17 66 277 189 141 2 64 63 98 179 195 141 195 299 65
184 176 183 185 183 176 177 247 133 111 138 91 354 337 333 337 42 13 344 280 204 268 294 346 333 332 291 310 14 60 242 269 18 32 97 134 144 229 234 139 352 4 129 83
187 181 187 188 184 187 176 348 52 172 191 169 214 356 328 337 46 337 332 289 329 301 281 213 288 325 306 326 359 349 175 67 12 329 346 289 241 174 198 110 103 44 70 113
186 188 193 183 182 170 146 142 236 181 220 210 88 326 290 329 353 254 304 314 354 324 325 327 334 329 314 335 6 1 61 33 347 310 233 82 37 63 61 118 89 63 74 73
196 195 197 182 182 171 160 183 287 162 280 161 225 75 313 341 313 312 293 357 341 330 353 331 319 320 308 301 329 4 32 37 342 54 96 75 75 69 59 59 77 91 90 82
201 201 198 185 180 169 135 185 263 201 251 216 151 183 257 311 320 329 317 16 348 324 325 313 296 285 267 273 326 9 53 0 45 353 315 103 66 70 69 62 51 54 54 62
202 212 200 187 186 177 152 66 351 323 270 306 359 54 358 315 305 281 308 33 5 308 314 314 313 256 270 225 198 150 54 317 113 344 337 51 90 50 79 70 42 38 50 93
204 212 196 187 191 183 163 108 78 32 332 351 22 42 339 310 0 345 40 358 348 333 322 307 337 327 16 345 330 242 187 250 339 117 4 133 41 14 350 41 48 21 42 38
206 192 192 189 189 184 161 148 137 62 36 1 347 2 13 342 344 341 4 4 350 358 286 7 16 354 357 323 310 23 11 24 100 284 67 47 8 329 318 266 52 12 38 36
194 196 196 191 186 185 182 163 169 104 30 26 10 25 356 347 342 313 328 342 353 6 356 349 6 347 356 3 3 359 360 1 36 30 96 74 354 331 326 86 30 29 44 54
186 202 194 189 185 186 193 187 167 163 208 290 295 313 341 340 8 33 319 353 358 358 27 14 341 341 9 30 12 25 35 347 20 359 55 24 354 18 57 93 61 51 49 63
186 179 187 189 182 180 183 152 167 205 247 240 267 286 250 244 252 310 328 318 12 23 38 16 335 334 342 357 21 13 40 38 76 27 78 69 40 60 64 72 68 51 51 54
182 181 190 188 185 181 177 170 165 231 310 319 33 5 18 79 273 263 275 345 9 356 352 307 281 333 341 16 359 82 36 47 86 139 87 76 74 66 63 58 59 71 66 63
178 173 180 188 192 189 192 194 184 160 1 292 335 63 210 260 204 219 253 268 321 311 310 269 333 296 341 352 88 90 4 47 80 89 127 109 74 63 66 63 64 69 69 74
176 177 182 188 195 193 189 205 217 177 88 356 296 322 145 25 97 126 175 202 297 310 316 35 252 283 353 336 66 49 11 356 356 115 117 98 106 82 72 74 68 69 74 67
175 177 183 192 201 187 183 214 230 217 210 319 325 338 195 207 126 151 142 305 286 314 306 298 281 323 20 37 81 112 85 66 139 130 110 115 131 112 87 76 79 78 77 82
177 177 176 175 166 181 179 166 122 181 178 191 298 300 200 198 219 206 281 305 299 329 299 266 250 276 322 111 130 142 119 113 109 116 114 115 136 109 94 93 108 94 85 73
163 166 169 158 176 196 207 177 90 171 173 161 289 273 185 175 195 230 230 278 286 244 249 267 263 271 181 116 132 141 135 126 121 126 112 129 130 99 90 103 147 105 85 92
166 161 148 170 182 198 220 229 255 219 183 200 194 256 222 173 176 151 172 283 300 266 234 258 359 298 79 149 143 154 158 166 148 122 114 110 115 120 116 118 107 108 98 78
154 156 156 176 185 158 154 144 172 195 209 221 245 214 218 179 175 120 195 207 238 271 237 207 94 80 72 86 163 144 140 146 152 146 158 148 139 123 112 118 133 139 121 78
158 168 177 132 150 157 169 149 167 161 204 214 222 214 152 190 135 185 204 205 237 331 264 123 239 129 105 113 114 120 127 128 118 138 135 143 165 148 146 142 132 108 97 84
167 151 156 153 165 198 187 176 170 199 214 183 186 207 167 162 184 159 184 177 20 245 145 74 277 125 136 129 120 122 130 132 127 139 140 139 144 158 161 141 118 103 89 74
165 192 183 161 177 194 206 165 186 178 166 168 179 105 146 122 124 76 130 228 236 305 55 223 158 141 147 143 142 131 139 147 141 138 151 156 155 159 140 121 105 83 63 46
177 187 213 202 179 231 188 184 179 169 161 159 144 107 100 110 103 157 186 226 347 252 248 226 148 148 151 154 157 160 148 160 155 152 149 146 143 132 125 116 99 76 48 30
217 229 228 202 230 110 287 269 158 157 156 146 114 87 110 116 142 199 219 216 240 207 218 129 150 160 166 164 171 173 172 172 168 162 153 145 141 134 125 113 87 49 10 357
240 253 284 292 190 177 282 303 158 151 149 132 119 136 139 185 191 182 208 209 221 210 112 146 162 164 172 175 179 180 180 175 166 159 154 153 149 137 131 109 56 0 358 16
218 234 247 298 310 314 219 234 147 165 150 158 149 145 190 156 190 201 195 213 130 138 143 161 175 178 179 182 178 174 172 166 164 163 162 160 149 133 105 68 38 32 25 8